N9CQS-15 Weather Reports


time (UTC)temp
C
wind
direction
speed
KPH
gust
KPH
rain 1hr
cm
rain 24hr
cm
rain mn
cm
humidity
%
barometer
mb
20260504013901 15 183 8.0 12.9 0.00 0.00 0.00 60 1009.3
20260504012901 15 178 6.4 9.7 0.00 0.00 0.00 60 1009.2
20260504011902 15 186 6.4 9.7 0.00 0.00 0.00 59 1009.0
20260504010901 16 183 9.7 9.7 0.00 0.00 0.00 58 1009.1
20260504005902 16 157 6.4 8.0 0.00 0.00 0.00 57 1009.2
20260504004902 16 194 8.0 11.3 0.00 0.00 0.00 56 1009.1
20260504003902 16 180 8.0 9.7 0.00 0.00 0.00 56 1009.0
20260504002901 17 186 8.0 9.7 0.00 0.00 0.00 55 1009.0
20260504001901 17 176 8.0 11.3 0.00 0.00 0.00 54 1009.0
20260504000902 17 180 9.7 9.7 0.00 0.00 0.00 53 1009.0
20260503235901 17 197 9.7 11.3 0.00 0.00 0.00 53 1008.9
20260503234901 18 202 11.3 19.3 0.00 0.00 0.00 50 1008.9
20260503233902 18 186 12.9 17.7 0.00 0.00 0.00 49 1009.0
20260503232902 18 206 12.9 16.1 0.00 0.00 0.00 50 1009.1
20260503231901 18 197 11.3 14.5 0.00 0.00 0.00 52 1009.2
20260503230902 18 192 12.9 12.9 0.00 0.00 0.00 51 1009.2
20260503225901 18 173 12.9 20.9 0.00 0.00 0.00 51 1009.2
20260503224901 17 201 12.9 25.7 0.00 0.00 0.00 51 1009.3
20260503223901 17 191 12.9 19.3 0.00 0.00 0.00 51 1009.5
20260503222901 18 188 14.5 19.3 0.00 0.00 0.00 50 1009.2
20260503221901 17 187 16.1 25.7 0.00 0.00 0.00 52 1009.3
20260503220902 17 184 16.1 16.1 0.00 0.00 0.00 53 1009.5
20260503215902 17 160 16.1 19.3 0.00 0.00 0.00 53 1009.7
20260503214902 17 189 17.7 20.9 0.00 0.00 0.00 53 1009.5
20260503213902 17 185 16.1 20.9 0.00 0.00 0.00 51 1009.7
20260503212902 16 193 16.1 20.9 0.00 0.00 0.00 54 1010.3
20260503211903 17 186 16.1 22.5 0.00 0.00 0.00 52 1010.4
20260503210901 17 182 16.1 16.1 0.00 0.00 0.00 52 1010.4
20260503205902 16 181 16.1 24.1 0.00 0.00 0.00 52 1010.6
20260503204901 17 181 14.5 17.7 0.00 0.00 0.00 52 1010.4
20260503203902 16 186 14.5 27.4 0.00 0.00 0.00 53 1010.4
20260503202902 16 149 12.9 20.9 0.00 0.00 0.00 54 1011.0
20260503201901 16 200 16.1 24.1 0.00 0.00 0.00 53 1011.4
20260503200901 16 180 14.5 14.5 0.00 0.00 0.00 52 1011.7
20260503195902 16 176 14.5 22.5 0.00 0.00 0.00 52 1011.7
20260503194901 16 175 12.9 20.9 0.00 0.00 0.00 51 1012.4
20260503193901 16 189 12.9 19.3 0.00 0.00 0.00 51 1012.5
20260503192902 16 198 12.9 24.1 0.00 0.00 0.00 51 1013.4
20260503191901 16 179 12.9 14.5 0.00 0.00 0.00 51 1013.6
20260503190901 16 197 12.9 12.9 0.00 0.00 0.00 52 1013.7
20260503185901 15 180 12.9 20.9 0.00 0.00 0.00 53 1014.3
20260503184902 15 187 11.3 16.1 0.00 0.00 0.00 51 1014.6
20260503183901 15 190 12.9 19.3 0.00 0.00 0.00 50 1014.6
20260503182901 15 176 12.9 17.7 0.00 0.00 0.00 49 1014.5
20260503181901 16 172 11.3 19.3 0.00 0.00 0.00 49 1014.4
20260503180901 16 185 12.9 12.9 0.00 0.00 0.00 45 1014.5
20260503175901 16 178 11.3 14.5 0.00 0.00 0.00 45 1014.6
20260503174901 17 192 11.3 20.9 0.00 0.00 0.00 42 1014.5
20260503173902 16 115 11.3 17.7 0.00 0.00 0.00 45 1015.1
20260503172901 16 166 14.5 19.3 0.00 0.00 0.00 45 1015.4
20260503171901 16 190 12.9 19.3 0.00 0.00 0.00 45 1015.4
20260503170901 16 178 12.9 12.9 0.00 0.00 0.00 46 1015.4
20260503150901 13 167 11.3 11.3 0.00 0.00 0.00 56 1017.6
20260503130902 9 207 9.7 9.7 0.00 0.00 0.00 71 1019.0
20260503080901 5 172 3.2 3.2 0.00 0.00 0.00 68 1019.2
20260503072902 5 178 3.2 3.2 0.00 0.00 0.00 67 1019.4
20260503071902 5 174 3.2 3.2 0.00 0.00 0.00 66 1019.5
20260503070901 5 178 3.2 3.2 0.00 0.00 0.00 65 1019.4
20260503054901 6 172 3.2 3.2 0.00 0.00 0.00 61 1019.9
20260503053901 6 172 3.2 3.2 0.00 0.00 0.00 61 1019.8
20260503052901 6 172 3.2 4.8 0.00 0.00 0.00 61 1019.8
20260503051902 6 172 1.6 3.2 0.00 0.00 0.00 62 1019.8
20260503050902 6 175 1.6 1.6 0.00 0.00 0.00 62 1019.8
20260503045901 6 173 1.6 1.6 0.00 0.00 0.00 61 1019.8
20260503044901 6 0 0.0 1.6 0.00 0.00 0.00 60 1019.8
20260503043902 7 180 1.6 3.2 0.00 0.00 0.00 59 1019.8
20260503042901 7 176 1.6 1.6 0.00 0.00 0.00 59 1019.8
20260503041902 7 180 1.6 3.2 0.00 0.00 0.00 58 1019.7
20260503040901 7 165 1.6 1.6 0.00 0.00 0.00 58 1019.7
20260503035901 7 169 1.6 3.2 0.00 0.00 0.00 57 1019.8
20260503034901 7 180 1.6 3.2 0.00 0.00 0.00 58 1019.9
20260503033901 7 0 0.0 0.0 0.00 0.00 0.00 59 1020.0
20260503032901 7 0 0.0 0.0 0.00 0.00 0.00 56 1020.0
20260503031901 6 0 0.0 0.0 0.00 0.00 0.00 59 1020.1
20260503030901 7 0 0.0 0.0 0.00 0.00 0.00 59 1020.1
20260503025901 7 0 0.0 0.0 0.00 0.00 0.00 59 1020.0
20260503024902 7 180 0.0 1.6 0.00 0.00 0.00 59 1020.0
20260503023902 7 0 0.0 0.0 0.00 0.00 0.00 58 1019.8
20260503022901 7 0 0.0 0.0 0.00 0.00 0.00 59 1019.8
20260503021902 7 0 0.0 0.0 0.00 0.00 0.00 57 1019.7
20260503020901 7 0 0.0 0.0 0.00 0.00 0.00 56 1019.7
20260503015901 8 0 0.0 0.0 0.00 0.00 0.00 56 1019.6
20260503014901 8 0 0.0 0.0 0.00 0.00 0.00 54 1019.4